Tracking 19219 objects as of 19-Jul-2018
HD Live streaming from Space Station
objects crossing your sky now

FLOCK 3P 28

Track FLOCK 3P 28 now!
10-day predictions
FLOCK 3P 28 is classified as:


NORAD ID: 41960
Int'l Code: 2017-008N
Perigee: 494.5 km
Apogee: 504.4 km
Inclination: 97.4 °
Period: 94.5 minutes
Semi major axis: 6870 km
RCS: Unknown
Launch date: February 15, 2017
Source: United States (US)
Launch site: SRIHARIKOTA (SRI)
aabbcc
Your satellite tracking list
Your tracking list is empty




NASA's NSSDC Master Catalog

Two Line Element Set (TLE):
1 41960U 17008N   18200.71630651  .00001321  00000-0  56675-4 0  9996
2 41960  97.4479 265.3423 0007181 228.1947 131.8677 15.24484070 78987
Source of the keplerian elements: AFSPC